Temp
-6 -6 -6 -6 -6 -6 -6 -6 -6 -6 -6 -7 -7 -6 -6 -6 -7 -7 -6 -6 -6 -6 -6 -6 -6 -6 -7 -7 -7 -7 -7 -7 -7 -7 -7 -7 -7 -7 -7 -7 -7 -7 -7 -7 -7 -7 -7 -7 -7 -8 -8 -8 -8 -8 -8 -8 -8 -8 -8 -8 -9 -9 -9
-6 -6 -6 -6 -6 -6 -6 -6 -6 -6 -6 -7 -7 -7 -7 -7 -7 -7 -7 -7 -7 -7 -7 -7 -7 -7 -7 -7 -7 -7 -7 -7 -7 -7 -7 -7 -7 -7 -7 -7 -7 -7 -7 -7 -7 -8 -8 -8 -8 -8 -8 -8 -8 -8 -8 -8 -8 -8 -8 -8 -9 -9 -9
-6 -6 -6 -6 -6 -6 -7 -7 -6 -6 -6 -7 -7 -7 -7 -7 -7 -7 -7 -7 -7 -7 -7 -7 -7 -7 -7 -7 -7 -7 -7 -7 -7 -7 -7 -7 -7 -8 -8 -8 -8 -8 -8 -8 -8 -8 -8 -8 -8 -8 -8 -8 -8 -8 -8 -8 -8 -8 -8 -9 -9 -9 -9
-6 -6 -6 -6 -6 -6 -7 -7 -7 -7 -7 -7 -7 -7 -7 -7 -7 -7 -7 -7 -7 -7 -7 -7 -7 -7 -7 -7 -7 -7 -7 -7 -7 -7 -7 -7 -7 -8 -8 -8 -8 -8 -8 -8 -8 -8 -8 -8 -8 -8 -8 -8 -8 -8 -8 -8 -8 -8 -9 -9 -9 -9 -9
-6 -7 -7 -7 -6 -6 -7 -6 -7 -7 -7 -7 -7 -7 -7 -7 -7 -7 -7 -7 -7 -7 -8 -8 -8 -7 -7 -7 -7 -7 -7 -7 -7 -8 -8 -8 -8 -8 -8 -8 -8 -8 -8 -8 -8 -8 -8 -8 -8 -8 -8 -8 -8 -8 -8 -8 -8 -9 -9 -9 -9 -9 -9
-6 -6 -7 -7 -6 -6 -7 -6 -6 -7 -7 -7 -7 -7 -7 -7 -7 -7 -7 -7 -7 -8 -8 -8 -8 -8 -7 -7 -8 -8 -8 -8 -8 -8 -8 -8 -8 -8 -8 -8 -8 -8 -8 -8 -8 -8 -8 -8 -8 -8 -8 -8 -8 -8 -8 -9 -9 -9 -9 -9 -9 -9 -9
-6 -6 -6 -7 -6 -6 -7 -7 -6 -7 -7 -7 -7 -8 -7 -7 -7 -7 -7 -8 -8 -8 -8 -8 -8 -8 -8 -8 -8 -8 -8 -8 -8 -8 -8 -8 -8 -8 -8 -8 -8 -8 -8 -8 -8 -8 -8 -8 -8 -8 -8 -8 -8 -9 -9 -9 -9 -9 -9 -9 -9 -10 -10
-6 -7 -6 -6 -7 -6 -6 -7 -7 -7 -7 -7 -7 -8 -8 -7 -7 -7 -8 -8 -8 -8 -8 -8 -8 -8 -8 -8 -8 -8 -8 -8 -8 -8 -8 -8 -8 -8 -8 -8 -8 -8 -8 -8 -8 -8 -8 -8 -8 -8 -8 -9 -9 -9 -9 -9 -9 -9 -9 -9 -9 -10 -10
-7 -7 -7 -7 -7 -7 -6 -6 -7 -7 -7 -7 -7 -7 -7 -8 -8 -7 -7 -8 -8 -8 -8 -8 -8 -8 -9 -8 -8 -8 -8 -8 -8 -8 -8 -8 -8 -8 -8 -8 -8 -8 -8 -8 -8 -8 -8 -8 -8 -8 -9 -9 -9 -9 -9 -9 -9 -9 -9 -9 -10 -10 -10
-7 -7 -7 -7 -7 -7 -7 -7 -7 -7 -7 -7 -7 -7 -7 -8 -8 -7 -7 -7 -8 -8 -8 -8 -8 -9 -9 -8 -8 -9 -9 -9 -8 -9 -9 -8 -8 -8 -8 -8 -8 -8 -8 -8 -8 -8 -8 -9 -9 -9 -9 -9 -9 -9 -9 -9 -10 -10 -10 -10 -10 -10 -10
-6 -7 -7 -7 -8 -7 -7 -7 -7 -7 -7 -7 -8 -8 -8 -8 -8 -7 -7 -8 -8 -8 -8 -8 -9 -9 -9 -9 -9 -9 -9 -9 -9 -9 -9 -9 -9 -9 -8 -8 -8 -8 -8 -8 -8 -9 -9 -9 -9 -9 -9 -9 -9 -9 -9 -10 -10 -10 -10 -10 -10 -10 -11
-7 -7 -7 -7 -7 -7 -7 -7 -7 -7 -7 -7 -8 -8 -8 -8 -8 -7 -8 -8 -9 -9 -8 -9 -10 -9 -9 -9 -9 -9 -9 -9 -9 -9 -9 -9 -9 -9 -9 -9 -9 -9 -9 -9 -9 -9 -9 -9 -9 -9 -9 -9 -10 -10 -10 -10 -10 -10 -10 -10 -11 -11 -11
-7 -7 -7 -7 -7 -7 -7 -7 -7 -7 -7 -7 -7 -8 -8 -8 -8 -8 -8 -8 -9 -9 -8 -9 -10 -10 -9 -10 -10 -9 -9 -9 -9 -9 -9 -9 -9 -9 -9 -9 -9 -9 -9 -9 -9 -9 -9 -9 -9 -9 -9 -10 -10 -10 -10 -10 -10 -10 -10 -11 -11 -10 -11
-7 -7 -7 -7 -7 -7 -7 -7 -7 -7 -8 -8 -7 -8 -8 -8 -8 -8 -8 -9 -9 -9 -9 -9 -9 -10 -9 -10 -10 -9 -9 -9 -9 -9 -9 -9 -9 -9 -9 -9 -9 -9 -9 -9 -9 -9 -9 -9 -9 -9 -9 -10 -10 -10 -10 -10 -10 -10 -10 -11 -11 -11 -11
-8 -7 -7 -7 -7 -7 -7 -7 -7 -7 -8 -8 -7 -8 -8 -8 -8 -8 -8 -9 -9 -9 -9 -10 -10 -10 -9 -10 -10 -9 -9 -10 -9 -9 -9 -9 -9 -9 -9 -9 -9 -9 -9 -9 -9 -9 -9 -9 -9 -9 -10 -10 -10 -10 -11 -11 -11 -11 -11 -11 -11 -11 -11
-8 -8 -8 -7 -7 -7 -7 -7 -7 -7 -7 -7 -8 -8 -8 -8 -8 -8 -8 -9 -9 -9 -10 -10 -10 -10 -10 -10 -10 -10 -10 -10 -9 -9 -9 -9 -9 -9 -9 -9 -9 -10 -9 -9 -9 -9 -9 -9 -9 -10 -10 -10 -11 -11 -11 -11 -11 -11 -11 -11 -11 -11 -12
-8 -8 -8 -8 -7 -7 -8 -7 -8 -8 -7 -8 -8 -8 -8 -8 -8 -8 -8 -9 -9 -10 -10 -10 -11 -11 -10 -10 -10 -10 -10 -9 -9 -9 -10 -10 -10 -10 -9 -10 -10 -10 -9 -9 -9 -9 -9 -9 -10 -10 -11 -11 -11 -11 -11 -11 -11 -11 -11 -11 -11 -11 -12
-8 -8 -8 -8 -8 -7 -7 -7 -7 -8 -8 -8 -8 -8 -9 -9 -8 -8 -8 -9 -10 -10 -10 -11 -11 -10 -10 -11 -11 -10 -10 -9 -9 -10 -10 -10 -10 -10 -10 -10 -10 -10 -10 -10 -9 -10 -10 -10 -10 -11 -11 -11 -11 -11 -11 -11 -11 -12 -12 -12 -12 -12 -12
-8 -8 -8 -8 -8 -8 -7 -7 -7 -8 -8 -8 -8 -8 -9 -9 -9 -8 -9 -9 -10 -10 -10 -10 -10 -10 -10 -11 -11 -10 -9 -9 -10 -10 -10 -10 -10 -10 -10 -10 -10 -10 -10 -10 -10 -10 -10 -10 -10 -11 -11 -11 -11 -11 -11 -11 -12 -12 -12 -12 -12 -12 -12
-8 -8 -8 -8 -8 -8 -8 -8 -8 -8 -8 -8 -8 -9 -9 -9 -9 -8 -9 -10 -10 -9 -9 -10 -9 -10 -10 -10 -10 -9 -10 -10 -10 -10 -10 -10 -10 -10 -10 -10 -10 -10 -10 -10 -10 -10 -10 -10 -11 -11 -11 -11 -12 -12 -12 -12 -12 -12 -13 -13 -13 -13 -13
-8 -8 -8 -8 -8 -8 -8 -8 -8 -8 -8 -8 -9 -9 -9 -9 -9 -9 -9 -10 -9 -9 -10 -10 -9 -10 -10 -10 -9 -10 -10 -11 -10 -10 -10 -10 -10 -10 -10 -10 -10 -10 -10 -11 -11 -11 -11 -11 -11 -11 -12 -12 -12 -12 -12 -12 -12 -13 -13 -13 -13 -13 -14
-8 -8 -8 -8 -8 -8 -8 -8 -8 -8 -8 -8 -8 -9 -9 -8 -9 -9 -9 -9 -9 -9 -10 -10 -10 -10 -10 -10 -10 -10 -11 -11 -11 -10 -10 -10 -10 -10 -10 -10 -10 -10 -11 -11 -11 -12 -12 -12 -12 -12 -12 -12 -12 -12 -13 -13 -13 -13 -14 -13 -14 -14 -14
-8 -8 -8 -8 -8 -8 -8 -8 -8 -8 -9 -9 -8 -8 -8 -9 -9 -9 -9 -10 -10 -10 -10 -10 -10 -10 -10 -10 -11 -11 -11 -11 -10 -10 -10 -10 -10 -10 -10 -10 -10 -11 -11 -11 -12 -12 -12 -12 -12 -12 -12 -12 -12 -13 -13 -13 -13 -13 -14 -14 -14 -14 -14
-8 -8 -8 -8 -8 -8 -9 -9 -9 -9 -9 -9 -9 -9 -9 -9 -9 -9 -9 -10 -10 -10 -11 -11 -11 -11 -11 -11 -11 -11 -11 -10 -10 -10 -11 -11 -11 -11 -11 -11 -11 -11 -11 -11 -12 -12 -12 -12 -12 -12 -12 -13 -13 -13 -13 -13 -13 -14 -14 -14 -14 -15 -15
-8 -8 -8 -8 -8 -9 -9 -9 -9 -9 -9 -9 -9 -9 -9 -9 -9 -9 -10 -10 -11 -11 -11 -11 -11 -11 -11 -11 -11 -11 -11 -10 -10 -11 -11 -11 -11 -11 -11 -11 -11 -11 -11 -11 -12 -12 -12 -12 -12 -12 -13 -13 -14 -14 -13 -14 -14 -14 -14 -15 -15 -15 -15
-8 -8 -8 -8 -8 -8 -9 -9 -9 -9 -9 -9 -9 -9 -9 -9 -9 -10 -11 -11 -11 -11 -11 -11 -11 -11 -11 -11 -11 -11 -10 -10 -11 -11 -12 -11 -11 -11 -12 -12 -12 -12 -12 -12 -12 -12 -12 -12 -12 -12 -13 -13 -14 -14 -14 -14 -14 -15 -15 -15 -15 -15 -15
-8 -8 -8 -8 -8 -8 -9 -9 -9 -9 -9 -9 -9 -9 -9 -9 -10 -11 -11 -11 -11 -11 -12 -12 -12 -11 -11 -11 -11 -11 -11 -11 -11 -12 -12 -12 -11 -12 -12 -12 -12 -12 -12 -12 -12 -12 -12 -12 -13 -13 -13 -13 -14 -14 -14 -14 -14 -14 -15 -15 -15 -15 -15
-8 -8 -8 -8 -8 -8 -9 -8 -9 -9 -10 -10 -10 -10 -10 -10 -10 -11 -11 -12 -11 -12 -12 -12 -12 -12 -12 -12 -12 -12 -11 -11 -12 -12 -12 -12 -12 -12 -12 -12 -12 -12 -12 -12 -12 -13 -13 -13 -13 -13 -13 -14 -14 -14 -14 -14 -14 -14 -15 -15 -15 -15 -15
-8 -9 -9 -8 -8 -9 -9 -9 -9 -10 -10 -10 -10 -10 -11 -11 -11 -12 -12 -12 -12 -12 -13 -13 -13 -13 -12 -12 -12 -12 -12 -12 -12 -12 -12 -12 -12 -12 -12 -12 -12 -12 -13 -12 -12 -13 -13 -13 -13 -13 -14 -14 -14 -14 -14 -14 -14 -14 -14 -15 -15 -14 -14
-8 -9 -9 -9 -9 -9 -9 -9 -10 -10 -11 -11 -11 -11 -11 -11 -11 -12 -12 -12 -12 -12 -12 -12 -13 -13 -13 -12 -13 -13 -12 -12 -12 -12 -12 -12 -12 -12 -12 -12 -12 -12 -13 -13 -13 -13 -13 -13 -13 -13 -14 -14 -14 -14 -14 -14 -14 -14 -14 -15 -15 -14 -14
-9 -9 -9 -9 -10 -10 -9 -10 -10 -10 -11 -11 -11 -11 -11 -11 -11 -12 -12 -12 -12 -12 -12 -12 -12 -13 -12 -12 -13 -13 -13 -12 -12 -12 -12 -12 -12 -12 -12 -12 -12 -12 -13 -13 -13 -13 -13 -13 -13 -13 -14 -14 -14 -14 -14 -14 -14 -14 -14 -15 -15 -14 -14
-10 -10 -10 -10 -10 -10 -10 -10 -11 -11 -10 -11 -11 -11 -11 -12 -11 -12 -12 -12 -12 -12 -12 -12 -12 -13 -13 -13 -13 -13 -12 -12 -13 -13 -13 -12 -12 -12 -12 -12 -12 -13 -13 -13 -13 -13 -13 -13 -14 -14 -14 -14 -14 -14 -14 -14 -14 -14 -14 -14 -14 -14 -14
-10 -10 -10 -10 -10 -10 -10 -11 -11 -11 -11 -11 -11 -11 -11 -12 -12 -12 -12 -12 -12 -12 -12 -12 -13 -13 -13 -12 -12 -12 -12 -13 -13 -13 -13 -13 -13 -12 -12 -12 -13 -13 -13 -13 -13 -13 -13 -13 -14 -14 -14 -14 -14 -14 -14 -14 -14 -14 -14 -14 -14 -14 -14
-10 -10 -10 -10 -10 -10 -10 -11 -11 -11 -11 -11 -11 -11 -11 -11 -12 -12 -12 -12 -12 -12 -12 -13 -13 -13 -12 -12 -12 -12 -13 -13 -13 -13 -13 -13 -13 -13 -13 -13 -13 -13 -13 -13 -13 -13 -14 -14 -14 -14 -14 -14 -14 -14 -14 -14 -14 -14 -14 -14 -14 -14 -14
-10 -10 -10 -10 -10 -10 -11 -11 -11 -11 -11 -11 -11 -11 -12 -12 -12 -12 -12 -12 -12 -12 -12 -12 -13 -13 -13 -13 -13 -13 -13 -13 -13 -13 -13 -13 -13 -13 -13 -13 -13 -13 -14 -13 -13 -14 -14 -14 -14 -14 -14 -14 -14 -14 -14 -14 -14 -14 -14 -15 -15 -15 -15
-10 -10 -10 -11 -11 -11 -11 -11 -11 -11 -11 -11 -11 -11 -12 -12 -12 -12 -12 -13 -13 -13 -13 -13 -13 -13 -13 -13 -13 -13 -12 -12 -13 -13 -13 -13 -13 -13 -13 -13 -14 -14 -14 -14 -14 -14 -14 -14 -14 -14 -14 -14 -14 -15 -14 -14 -14 -14 -15 -15 -15 -15 -15
-10 -10 -10 -11 -11 -11 -11 -11 -11 -12 -12 -12 -11 -11 -12 -12 -12 -12 -13 -13 -13 -14 -14 -13 -13 -13 -13 -12 -12 -12 -12 -12 -13 -13 -13 -13 -13 -13 -13 -14 -14 -14 -14 -14 -14 -14 -14 -14 -14 -15 -15 -15 -15 -15 -15 -15 -15 -15 -15 -15 -15 -15 -15
-11 -11 -11 -11 -12 -11 -11 -11 -11 -12 -11 -11 -12 -12 -12 -12 -12 -13 -13 -13 -13 -13 -13 -13 -13 -13 -13 -12 -12 -12 -12 -13 -13 -13 -13 -13 -13 -14 -14 -14 -14 -14 -14 -14 -14 -14 -14 -14 -14 -15 -15 -15 -15 -15 -15 -15 -15 -15 -15 -15 -15 -15 -15
Height
5911 5911 5910 5911 5911 5910 5912 5913 5913 5913 5913 5912 5913 5915 5913 5912 5913 5913 5912 5912 5912 5910 5909 5908 5907 5906 5906 5905 5904 5903 5902 5901 5899 5898 5897 5895 5893 5892 5890 5888 5887 5885 5883 5881 5879 5878 5876 5874 5873 5871 5870 5868 5866 5864 5862 5861 5859 5857 5854 5851 5848 5845 5843
5908 5908 5907 5907 5908 5908 5908 5910 5911 5910 5910 5909 5911 5912 5910 5909 5910 5910 5909 5909 5908 5907 5906 5904 5903 5903 5902 5902 5901 5900 5899 5898 5896 5895 5893 5892 5890 5888 5887 5885 5884 5882 5880 5878 5876 5875 5873 5871 5870 5868 5866 5865 5863 5861 5859 5857 5855 5853 5851 5848 5845 5842 5839
5907 5906 5905 5903 5904 5905 5905 5905 5907 5907 5907 5907 5907 5908 5906 5905 5907 5907 5906 5906 5905 5903 5902 5900 5899 5899 5899 5899 5898 5897 5895 5894 5893 5892 5890 5889 5887 5885 5883 5882 5880 5879 5877 5876 5874 5872 5870 5868 5866 5865 5863 5861 5859 5857 5855 5853 5851 5848 5847 5844 5841 5838 5835
5905 5905 5903 5902 5902 5903 5902 5901 5903 5904 5904 5903 5903 5903 5902 5902 5904 5904 5903 5903 5902 5899 5898 5896 5895 5895 5895 5895 5894 5893 5892 5891 5890 5888 5887 5885 5883 5882 5880 5878 5877 5876 5874 5872 5870 5869 5867 5865 5863 5861 5860 5857 5855 5853 5851 5849 5847 5844 5842 5839 5837 5834 5831
5902 5903 5902 5901 5900 5902 5900 5899 5901 5903 5901 5901 5900 5899 5898 5900 5901 5901 5900 5900 5898 5896 5893 5892 5892 5892 5892 5891 5891 5890 5889 5887 5886 5885 5884 5882 5880 5878 5876 5875 5874 5872 5871 5869 5867 5865 5863 5861 5859 5857 5855 5853 5851 5849 5847 5844 5842 5840 5837 5834 5831 5829 5826
5899 5899 5901 5900 5898 5898 5897 5896 5898 5900 5899 5898 5898 5896 5896 5897 5898 5898 5898 5897 5894 5892 5889 5888 5888 5888 5888 5888 5887 5886 5885 5884 5882 5881 5880 5878 5876 5874 5872 5871 5869 5869 5867 5865 5863 5861 5859 5857 5855 5853 5851 5848 5846 5844 5841 5839 5837 5835 5832 5829 5826 5823 5820
5897 5896 5897 5897 5895 5894 5893 5893 5894 5897 5897 5895 5894 5894 5895 5896 5895 5895 5895 5893 5890 5887 5885 5885 5885 5885 5885 5884 5883 5882 5881 5880 5879 5877 5876 5874 5872 5870 5868 5866 5865 5865 5863 5862 5860 5857 5855 5853 5850 5848 5846 5843 5841 5838 5836 5834 5831 5829 5827 5824 5821 5818 5814
5895 5895 5894 5893 5892 5891 5890 5890 5892 5895 5895 5893 5892 5893 5893 5892 5892 5892 5891 5889 5886 5883 5882 5882 5883 5883 5882 5880 5879 5878 5878 5877 5875 5874 5872 5870 5868 5866 5864 5863 5862 5861 5859 5857 5855 5853 5850 5848 5846 5843 5841 5838 5835 5833 5831 5828 5826 5824 5821 5818 5816 5812 5809
5893 5893 5893 5892 5890 5888 5887 5888 5890 5893 5893 5892 5891 5891 5890 5889 5889 5888 5888 5886 5882 5879 5879 5880 5881 5880 5878 5876 5876 5875 5874 5873 5872 5870 5869 5866 5864 5861 5860 5859 5858 5857 5856 5854 5851 5849 5846 5844 5841 5838 5836 5834 5831 5828 5825 5823 5821 5818 5815 5812 5809 5806 5803
5891 5891 5891 5891 5890 5888 5886 5887 5888 5889 5889 5889 5888 5887 5887 5887 5887 5886 5884 5881 5878 5876 5877 5877 5877 5876 5874 5873 5873 5872 5871 5869 5868 5867 5865 5862 5859 5857 5856 5855 5854 5853 5852 5850 5847 5844 5841 5839 5837 5834 5831 5828 5825 5822 5820 5818 5816 5813 5809 5806 5802 5799 5797
5889 5889 5888 5888 5888 5886 5885 5885 5885 5886 5886 5886 5885 5885 5884 5884 5884 5882 5878 5876 5874 5873 5874 5874 5873 5872 5871 5871 5869 5868 5868 5866 5864 5863 5861 5858 5855 5853 5851 5851 5849 5848 5846 5844 5842 5840 5837 5834 5832 5830 5827 5824 5820 5817 5814 5812 5810 5808 5805 5800 5795 5792 5790
5885 5886 5886 5885 5885 5884 5882 5881 5882 5884 5884 5884 5884 5884 5882 5881 5880 5877 5873 5872 5871 5871 5871 5872 5870 5868 5867 5867 5866 5865 5865 5863 5861 5859 5857 5853 5850 5848 5847 5846 5845 5843 5841 5840 5838 5836 5833 5830 5827 5824 5822 5819 5816 5812 5808 5805 5803 5802 5800 5796 5790 5786 5783
5883 5884 5884 5883 5882 5881 5880 5878 5879 5881 5881 5880 5881 5880 5879 5877 5876 5873 5871 5870 5869 5868 5868 5869 5868 5865 5864 5864 5863 5862 5861 5859 5857 5855 5851 5848 5846 5844 5843 5842 5841 5839 5837 5835 5833 5830 5828 5826 5823 5820 5817 5814 5811 5807 5804 5800 5797 5796 5794 5790 5786 5783 5779
5880 5880 5881 5881 5879 5879 5878 5875 5876 5878 5877 5876 5876 5875 5874 5873 5872 5870 5868 5867 5866 5865 5866 5866 5865 5863 5862 5861 5859 5858 5856 5855 5853 5851 5846 5843 5842 5840 5839 5838 5837 5835 5832 5830 5828 5825 5823 5821 5818 5815 5812 5809 5806 5802 5799 5795 5792 5791 5789 5785 5781 5778 5776
5877 5876 5876 5876 5875 5875 5874 5872 5872 5873 5873 5872 5871 5870 5869 5868 5867 5866 5866 5865 5864 5863 5864 5862 5860 5858 5858 5857 5855 5853 5851 5850 5848 5845 5841 5839 5838 5837 5835 5834 5833 5830 5828 5826 5823 5820 5818 5815 5813 5810 5807 5804 5801 5797 5794 5791 5788 5785 5783 5780 5776 5772 5770
5876 5875 5874 5872 5871 5870 5868 5867 5868 5869 5868 5867 5867 5866 5865 5864 5863 5863 5863 5862 5861 5861 5861 5859 5856 5855 5854 5852 5850 5848 5847 5846 5843 5839 5836 5835 5834 5833 5832 5830 5828 5826 5823 5821 5819 5816 5813 5810 5807 5805 5802 5799 5796 5792 5789 5786 5784 5780 5777 5774 5771 5767 5763
5873 5872 5871 5869 5868 5868 5866 5863 5863 5863 5862 5862 5862 5861 5861 5860 5859 5858 5858 5858 5858 5858 5856 5855 5854 5852 5850 5847 5845 5845 5844 5841 5837 5834 5832 5831 5830 5829 5827 5826 5824 5822 5819 5816 5814 5811 5808 5805 5803 5800 5797 5794 5790 5787 5784 5781 5778 5775 5772 5769 5766 5762 5758
5870 5869 5869 5867 5865 5864 5862 5860 5859 5858 5858 5858 5857 5856 5856 5855 5854 5853 5854 5854 5854 5852 5852 5851 5850 5848 5845 5843 5841 5840 5839 5835 5832 5829 5828 5828 5826 5825 5823 5821 5819 5817 5814 5812 5809 5807 5804 5800 5798 5795 5792 5789 5786 5784 5781 5777 5774 5770 5766 5763 5759 5756 5754
5866 5866 5866 5865 5863 5860 5858 5857 5855 5854 5855 5855 5853 5853 5852 5850 5849 5850 5850 5850 5849 5847 5847 5846 5844 5842 5841 5839 5838 5836 5833 5830 5827 5825 5824 5824 5823 5821 5819 5817 5815 5812 5809 5807 5805 5802 5799 5795 5792 5789 5787 5784 5782 5779 5776 5773 5769 5765 5762 5758 5754 5751 5748
5861 5861 5861 5860 5860 5858 5855 5854 5852 5851 5851 5851 5850 5849 5848 5847 5847 5847 5847 5847 5844 5841 5841 5840 5838 5838 5837 5836 5834 5831 5827 5825 5823 5822 5821 5820 5819 5818 5816 5813 5810 5807 5804 5802 5799 5796 5793 5790 5786 5784 5782 5779 5776 5773 5771 5768 5765 5761 5758 5755 5751 5748 5745
5855 5856 5857 5855 5855 5854 5852 5851 5850 5849 5848 5847 5847 5845 5843 5843 5844 5844 5843 5841 5837 5835 5835 5836 5835 5835 5834 5831 5828 5825 5823 5822 5820 5819 5817 5816 5815 5813 5811 5808 5805 5803 5800 5797 5794 5791 5788 5784 5781 5778 5776 5774 5771 5768 5764 5762 5760 5756 5753 5750 5747 5744 5741
5850 5851 5851 5850 5850 5849 5849 5848 5848 5847 5845 5844 5843 5841 5840 5840 5841 5840 5837 5835 5832 5831 5832 5832 5832 5831 5829 5826 5823 5821 5820 5818 5817 5816 5814 5812 5810 5808 5806 5803 5800 5798 5796 5793 5789 5786 5783 5779 5776 5774 5771 5768 5765 5763 5759 5756 5754 5751 5748 5744 5741 5738 5736
5846 5846 5846 5845 5845 5845 5845 5845 5844 5844 5842 5840 5839 5838 5837 5837 5836 5835 5834 5832 5831 5830 5829 5829 5828 5826 5824 5821 5819 5818 5817 5815 5814 5813 5811 5808 5806 5803 5800 5798 5796 5794 5791 5788 5785 5782 5778 5774 5772 5769 5765 5762 5759 5757 5755 5752 5748 5745 5742 5738 5735 5733 5731
5843 5842 5841 5841 5841 5841 5841 5841 5840 5839 5837 5836 5835 5835 5835 5834 5833 5831 5831 5830 5829 5828 5827 5826 5824 5821 5819 5818 5816 5815 5813 5812 5810 5808 5806 5804 5801 5797 5794 5792 5790 5788 5786 5784 5781 5777 5772 5769 5766 5764 5760 5756 5754 5751 5749 5746 5743 5740 5737 5734 5731 5728 5726
5839 5838 5837 5837 5837 5836 5836 5836 5835 5834 5832 5831 5832 5832 5831 5829 5828 5828 5827 5826 5826 5825 5824 5823 5819 5817 5815 5815 5813 5811 5810 5807 5805 5804 5802 5800 5796 5793 5789 5786 5784 5782 5781 5778 5775 5772 5768 5764 5761 5758 5755 5752 5748 5745 5742 5739 5736 5733 5732 5730 5727 5724 5722
5834 5833 5833 5834 5833 5832 5832 5831 5829 5828 5828 5827 5827 5826 5824 5822 5823 5823 5823 5822 5821 5820 5819 5817 5815 5813 5812 5811 5809 5807 5805 5803 5800 5799 5798 5796 5792 5789 5786 5782 5779 5777 5775 5772 5770 5767 5764 5760 5756 5753 5750 5748 5745 5741 5737 5733 5729 5727 5727 5726 5724 5720 5718
5830 5829 5829 5830 5828 5828 5826 5824 5823 5823 5823 5823 5822 5821 5819 5818 5818 5819 5818 5817 5816 5814 5812 5810 5809 5809 5808 5806 5804 5802 5800 5798 5795 5793 5793 5791 5788 5785 5782 5778 5774 5772 5769 5766 5764 5761 5758 5755 5751 5748 5746 5743 5740 5737 5734 5730 5725 5723 5722 5722 5720 5718 5716
5826 5825 5825 5825 5825 5824 5820 5816 5815 5816 5817 5818 5819 5817 5814 5814 5814 5813 5813 5812 5811 5809 5807 5805 5804 5803 5802 5800 5799 5797 5795 5793 5790 5788 5786 5785 5782 5780 5777 5774 5771 5767 5764 5761 5758 5755 5753 5750 5747 5744 5741 5739 5736 5733 5731 5728 5725 5721 5718 5717 5717 5716 5713
5822 5821 5819 5820 5820 5819 5817 5815 5813 5811 5811 5813 5814 5812 5809 5809 5809 5808 5808 5807 5805 5803 5802 5801 5799 5798 5796 5794 5793 5792 5790 5789 5786 5783 5781 5779 5776 5774 5772 5769 5766 5763 5760 5757 5754 5751 5748 5746 5743 5740 5737 5735 5732 5729 5727 5726 5723 5720 5717 5715 5715 5714 5711
5817 5816 5813 5814 5815 5813 5812 5813 5810 5808 5805 5804 5805 5805 5804 5803 5804 5803 5802 5802 5799 5797 5797 5796 5794 5793 5792 5790 5788 5786 5785 5784 5781 5779 5776 5774 5771 5769 5766 5763 5761 5758 5755 5752 5750 5747 5744 5740 5737 5735 5733 5730 5728 5725 5723 5721 5719 5717 5714 5713 5713 5712 5709
5810 5809 5807 5809 5809 5806 5806 5807 5805 5802 5799 5795 5796 5799 5799 5797 5797 5797 5797 5797 5795 5793 5792 5791 5790 5789 5787 5785 5783 5780 5779 5778 5775 5773 5771 5768 5765 5763 5761 5758 5755 5753 5751 5747 5745 5742 5739 5735 5732 5729 5727 5725 5723 5721 5719 5717 5715 5713 5710 5708 5709 5709 5706
5804 5803 5802 5803 5803 5801 5800 5800 5796 5793 5791 5789 5790 5793 5792 5791 5791 5792 5792 5792 5790 5789 5788 5787 5786 5784 5782 5780 5778 5774 5772 5771 5768 5766 5764 5762 5759 5758 5756 5753 5750 5748 5746 5743 5739 5735 5732 5730 5727 5725 5723 5720 5718 5716 5714 5711 5709 5708 5705 5704 5705 5704 5703
5798 5798 5797 5797 5798 5797 5795 5794 5791 5787 5786 5784 5785 5786 5787 5787 5786 5786 5786 5786 5785 5784 5784 5782 5780 5778 5776 5774 5771 5768 5766 5764 5762 5760 5757 5755 5753 5751 5749 5747 5745 5742 5740 5738 5734 5730 5727 5725 5722 5720 5718 5716 5714 5712 5710 5707 5705 5703 5702 5701 5701 5700 5699
5793 5794 5792 5792 5792 5792 5790 5789 5788 5786 5783 5781 5779 5780 5781 5783 5782 5780 5780 5781 5780 5779 5778 5777 5774 5771 5769 5767 5765 5763 5762 5759 5756 5754 5751 5748 5747 5745 5742 5740 5739 5736 5734 5732 5729 5726 5723 5720 5718 5715 5713 5711 5710 5708 5705 5703 5701 5699 5698 5697 5696 5696 5696
5787 5788 5787 5786 5786 5786 5785 5784 5783 5782 5780 5778 5777 5776 5775 5776 5777 5775 5774 5775 5774 5773 5771 5770 5768 5765 5763 5762 5760 5758 5757 5754 5750 5747 5744 5741 5740 5739 5737 5734 5732 5730 5728 5725 5724 5722 5719 5716 5713 5711 5709 5707 5705 5703 5700 5698 5697 5694 5693 5693 5692 5692 5692
5780 5782 5782 5780 5779 5779 5779 5778 5777 5776 5775 5774 5774 5773 5771 5771 5772 5771 5769 5768 5768 5766 5764 5762 5761 5759 5757 5755 5753 5751 5749 5747 5744 5741 5738 5735 5733 5732 5731 5728 5726 5725 5723 5720 5718 5716 5714 5711 5709 5706 5704 5703 5701 5698 5695 5694 5692 5690 5689 5689 5689 5688 5688
5773 5775 5775 5773 5772 5772 5772 5772 5771 5770 5769 5769 5769 5768 5766 5766 5767 5766 5764 5763 5761 5759 5758 5756 5754 5753 5751 5748 5746 5744 5742 5740 5737 5734 5732 5728 5725 5724 5724 5723 5721 5719 5717 5715 5713 5711 5709 5706 5704 5701 5700 5699 5697 5694 5692 5690 5688 5687 5686 5686 5686 5686 5685
5766 5768 5768 5766 5765 5765 5765 5765 5765 5764 5763 5762 5762 5761 5760 5761 5761 5759 5758 5757 5755 5753 5752 5750 5748 5747 5745 5742 5740 5738 5736 5734 5731 5728 5725 5722 5718 5716 5716 5716 5716 5714 5712 5709 5707 5706 5703 5701 5699 5697 5695 5694 5692 5690 5688 5686 5685 5684 5683 5683 5683 5683 5682
Wind_Speed
23 24 25 23 22 24 23 21 21 24 25 28 29 27 25 22 23 27 29 29 28 27 27 27 26 25 24 23 24 25 26 28 29 30 31 32 32 33 33 33 33 33 34 34 34 35 35 35 35 36 36 36 36 37 37 37 38 38 38 39 41 41 42
23 24 25 25 24 24 25 22 22 24 25 26 27 27 27 25 25 29 32 32 31 29 28 28 27 27 25 24 24 26 27 29 30 32 33 33 33 33 34 35 35 35 35 35 36 36 36 36 36 36 36 37 37 37 38 38 39 39 39 40 41 42 43
22 24 26 26 26 24 24 24 24 25 26 26 25 27 28 27 26 30 32 32 31 28 27 28 28 28 26 25 25 26 28 29 31 33 34 34 34 34 35 35 36 36 36 36 36 36 36 36 37 37 37 37 38 38 38 39 40 40 41 41 42 43 43
21 22 24 26 26 23 22 24 24 24 25 26 25 26 27 26 25 28 30 30 28 26 26 27 28 28 27 27 27 27 29 30 32 35 36 36 36 35 35 36 36 37 37 37 37 37 37 37 37 37 37 38 38 39 39 40 41 41 42 42 43 43 45
21 19 20 24 26 23 22 24 21 22 26 25 22 24 27 26 24 26 28 28 25 24 26 27 29 29 28 29 29 29 30 32 34 36 37 38 37 36 36 36 36 36 37 38 38 38 38 38 38 38 38 39 39 39 40 41 42 42 42 43 44 45 45
23 22 20 22 26 23 22 23 22 23 27 23 19 23 28 26 24 27 28 26 25 24 25 28 30 30 30 30 31 31 32 34 36 37 39 39 38 36 36 36 36 36 37 38 38 38 38 38 39 39 39 39 40 40 41 42 44 44 44 45 45 45 45
23 25 22 21 24 24 24 25 23 22 24 22 21 23 26 24 24 27 26 25 25 24 25 29 30 31 32 32 32 33 33 34 35 37 39 39 38 36 36 36 36 36 37 37 38 38 39 39 39 40 40 41 41 42 43 44 45 45 45 46 46 46 46
20 22 22 22 23 24 25 27 23 21 21 22 22 24 26 25 24 26 26 25 26 25 26 29 30 31 32 33 34 34 33 33 35 38 40 39 38 36 36 36 36 37 37 37 38 39 39 39 40 41 41 42 43 44 45 46 46 46 47 47 47 47 48
19 19 20 21 22 23 26 27 25 24 23 21 23 25 26 26 27 30 28 24 25 26 27 29 30 31 32 33 35 35 34 35 37 40 40 38 37 36 36 36 36 36 37 38 39 39 39 40 41 42 43 44 45 45 46 46 46 47 48 47 48 49 49
19 19 20 19 20 23 26 27 27 26 24 22 24 27 27 28 30 32 27 23 24 26 28 30 30 31 33 34 35 34 35 37 39 40 40 38 37 36 36 36 36 37 37 38 40 41 41 42 43 44 45 45 46 46 47 46 45 46 47 48 49 50 50
18 20 21 20 21 25 27 28 29 28 28 26 26 27 29 31 32 31 27 25 27 30 30 31 32 33 34 34 35 35 35 38 41 41 39 37 36 36 36 37 37 38 40 41 42 43 43 44 45 45 45 45 46 47 47 47 45 44 45 46 48 50 51
19 19 21 22 24 26 28 31 30 29 29 29 28 28 30 32 31 29 26 24 29 33 32 31 31 33 35 35 37 37 36 39 43 41 38 35 35 37 37 38 39 40 41 43 44 44 45 46 46 46 46 45 45 46 46 46 46 46 45 45 48 51 51
20 20 22 26 28 28 31 33 31 28 29 31 31 31 32 32 30 29 26 24 28 32 33 31 30 32 36 37 38 38 37 41 43 40 37 36 36 38 38 39 40 41 43 45 46 47 47 47 47 47 47 46 45 45 45 46 47 47 46 46 48 49 48
25 25 26 28 30 31 31 33 31 29 29 31 33 33 32 31 30 29 27 25 28 32 33 33 32 33 36 37 39 39 39 42 42 38 36 37 38 39 40 40 41 42 45 46 47 48 48 48 48 48 47 47 46 46 45 46 47 47 47 47 47 46 45
28 29 28 29 32 32 33 34 33 31 31 32 33 32 31 31 31 30 27 26 30 32 33 33 34 35 36 38 39 39 41 43 42 37 37 39 40 41 41 41 42 44 46 47 48 49 49 49 49 48 48 47 47 46 46 46 47 48 49 48 45 45 46
29 30 31 33 35 35 37 38 35 33 33 33 33 32 31 33 33 31 29 29 31 32 33 33 34 36 38 39 40 40 43 45 42 38 39 41 41 42 42 42 44 46 48 49 50 50 50 50 49 48 47 47 46 46 47 47 47 48 49 48 45 46 47
31 31 33 36 38 38 40 40 36 35 35 34 33 33 33 34 35 34 33 32 31 32 34 34 35 37 39 39 40 42 45 44 41 40 42 42 43 44 44 44 46 48 50 51 50 50 51 51 48 46 45 45 46 46 47 48 49 49 48 47 45 44 45
31 33 34 37 39 40 41 41 39 37 36 35 34 34 35 37 36 37 37 34 32 34 35 34 35 38 38 39 42 46 46 43 42 43 44 44 45 45 45 47 49 50 51 51 51 51 52 51 48 46 44 44 46 47 48 50 49 48 47 46 44 43 44
35 36 35 36 37 39 40 39 39 38 36 35 34 34 36 38 38 38 37 34 34 36 35 33 35 38 39 43 46 48 46 43 44 45 45 45 45 46 47 49 51 52 52 52 53 53 53 52 50 48 46 46 48 49 49 50 49 48 47 43 42 43 43
39 37 35 35 35 36 36 37 38 37 35 34 35 35 36 38 38 37 35 33 36 39 35 33 35 38 42 46 47 46 44 44 45 47 47 47 47 47 49 51 52 53 54 54 54 53 52 51 50 50 50 49 49 49 49 50 48 46 44 41 42 43 42
42 37 34 35 35 34 33 34 34 34 33 33 33 35 37 37 35 35 35 36 39 39 34 32 35 38 42 45 44 44 44 45 46 47 47 48 48 49 51 52 53 54 54 53 53 52 50 50 50 50 50 49 49 49 50 49 46 43 41 42 44 44 42
38 36 33 34 33 31 31 30 29 30 31 31 32 35 37 35 34 35 36 37 38 36 33 33 36 39 41 43 43 44 45 46 47 47 48 49 49 50 52 54 54 54 53 52 52 49 47 48 50 49 49 49 49 49 48 46 43 42 42 44 46 46 44
39 38 35 33 30 28 28 27 26 27 29 31 33 34 34 34 34 35 36 35 35 34 33 35 38 40 40 41 42 44 45 47 48 48 48 49 51 52 54 54 55 54 52 51 49 47 47 48 49 47 47 48 49 48 46 42 41 42 43 44 45 45 43
42 39 37 35 32 31 29 26 25 26 29 33 33 33 33 34 34 35 35 33 33 32 34 36 38 37 38 40 42 44 46 48 48 49 49 51 52 53 54 55 55 54 53 52 48 47 47 47 46 45 44 45 48 49 47 44 41 40 40 41 43 41 40
40 39 37 36 35 35 33 29 28 29 31 33 33 33 34 34 33 33 33 32 32 34 36 36 35 36 38 41 43 44 46 47 48 49 50 50 51 52 53 54 55 54 54 53 50 48 47 46 45 45 43 42 44 47 48 45 41 38 37 38 40 40 38
38 39 37 34 35 35 32 30 30 30 31 32 34 36 36 35 32 31 31 33 34 35 35 35 36 37 39 41 42 43 44 47 50 50 48 48 50 52 53 53 53 54 54 54 52 48 47 47 47 45 43 41 42 44 46 42 39 40 38 35 36 38 36
36 37 36 34 34 34 35 35 34 31 31 33 35 37 38 36 34 32 32 35 35 34 34 36 38 39 41 41 41 43 44 47 50 50 48 49 50 51 51 52 53 54 53 52 50 47 46 46 45 44 43 42 40 40 41 39 39 40 36 31 34 37 34
37 37 37 36 35 36 39 40 35 30 30 31 33 34 35 35 35 34 33 33 32 33 35 37 39 41 42 41 41 44 45 46 49 50 50 51 51 51 52 52 53 52 51 50 48 45 43 43 43 42 42 41 39 37 37 37 36 35 33 34 37 36 32
38 37 40 39 38 39 40 39 36 33 31 32 33 33 34 34 34 34 32 31 31 33 34 38 41 40 39 41 43 45 46 46 47 49 51 52 53 54 54 53 51 50 49 49 47 44 43 42 41 41 41 40 39 37 36 35 34 35 39 41 39 34 31
39 38 42 42 41 43 43 41 41 40 38 39 38 35 34 35 33 32 33 32 33 34 36 38 39 37 38 43 46 46 46 46 48 50 53 54 54 55 54 52 51 50 49 48 46 44 43 42 41 41 41 40 39 38 38 37 37 39 43 42 36 32 31
41 40 43 43 43 45 44 42 41 40 42 43 40 35 35 36 35 35 36 36 35 37 38 36 36 39 44 45 46 47 47 48 50 52 54 54 54 54 53 52 51 50 49 47 45 44 43 42 41 42 41 40 39 39 39 39 39 41 42 40 34 31 29
41 40 43 45 43 42 44 43 39 39 42 44 41 37 37 38 37 38 39 38 39 41 42 39 39 44 47 46 47 50 51 52 54 55 55 55 54 53 52 52 51 50 48 46 44 43 43 42 42 42 42 41 40 39 39 41 41 41 40 37 33 30 28
45 44 45 45 43 43 44 41 35 36 43 44 41 38 38 37 37 39 39 40 42 43 43 42 43 47 49 49 51 54 54 56 58 58 57 56 55 54 53 52 51 49 47 44 44 44 44 43 43 42 41 41 39 38 39 41 41 39 36 33 31 30 27
46 45 43 44 44 44 40 36 34 39 45 43 41 39 36 35 37 40 40 42 44 44 44 45 47 50 52 53 54 55 56 59 60 59 59 57 55 55 54 52 50 48 46 44 43 43 43 43 43 43 41 40 39 38 39 40 40 37 34 32 30 28 25
46 45 44 45 45 43 39 39 41 44 43 43 44 42 38 37 41 43 43 43 45 48 49 49 49 50 51 52 55 58 59 60 60 60 59 57 56 55 54 51 48 46 45 45 43 42 42 42 42 42 41 39 38 39 39 39 37 34 31 29 28 26 24
47 46 46 46 43 40 40 43 45 45 43 45 47 48 47 47 48 47 46 47 49 50 50 49 50 52 54 57 59 61 61 60 60 59 58 57 57 55 53 50 47 45 44 44 44 42 42 41 41 41 39 38 37 38 39 36 32 30 27 25 24 24 24
48 47 47 45 41 38 40 43 45 45 44 45 48 51 53 52 49 47 49 50 50 49 49 51 54 56 58 60 61 61 61 60 58 58 57 57 56 55 52 49 46 44 43 43 43 43 42 41 40 39 38 37 36 37 36 33 29 27 25 23 23 24 24
48 46 44 42 40 40 41 43 45 45 45 46 49 50 51 50 49 50 51 51 51 52 54 55 57 58 59 60 60 60 60 58 58 57 57 56 55 54 52 48 45 43 43 42 42 42 42 41 40 39 38 36 35 35 34 31 27 26 25 24 24 24 24
Wind_Direction
271 273 276 277 272 270 273 274 275 275 273 275 276 274 274 279 284 286 287 287 288 289 291 292 294 296 297 299 302 305 307 307 308 309 310 309 309 309 309 311 312 313 313 312 312 312 313 312 312 311 310 311 311 312 313 314 314 314 315 315 316 316 316
274 274 276 278 273 272 277 278 278 277 276 279 281 280 283 287 285 285 286 286 287 288 289 290 292 294 296 298 300 302 304 305 307 309 310 310 309 308 307 308 309 311 312 312 312 312 313 312 311 310 309 309 309 310 311 312 313 313 313 314 315 315 315
272 275 275 279 279 276 276 279 282 283 282 284 285 284 288 290 285 283 285 287 287 288 290 292 293 294 296 298 300 301 302 304 306 308 309 310 309 307 305 305 307 308 309 311 312 313 313 312 311 310 309 308 308 308 309 310 311 312 313 314 313 313 313
271 272 274 277 278 276 276 280 286 288 286 286 289 290 291 290 285 286 289 289 289 291 294 295 295 296 297 299 300 301 302 303 305 307 308 309 308 307 305 304 305 306 308 310 312 313 313 312 311 311 310 309 308 307 308 308 310 312 313 313 312 312 313
268 266 271 274 275 276 278 282 287 285 280 285 293 295 297 293 289 293 295 292 292 296 299 299 298 298 299 300 301 302 303 304 305 307 308 308 308 306 305 304 305 306 307 310 312 313 314 313 312 312 310 309 308 307 308 309 310 312 312 312 312 312 313
263 266 269 272 276 279 279 285 293 284 279 292 303 300 304 302 293 294 293 291 296 299 300 301 300 300 301 301 302 302 303 304 305 307 309 309 308 306 306 305 305 307 308 311 313 314 314 314 314 313 311 310 309 309 309 309 310 312 312 312 312 313 312
262 268 273 274 277 283 283 283 290 285 283 302 307 297 303 305 295 292 288 289 298 301 301 301 300 302 303 302 302 302 304 304 304 309 310 308 307 307 307 307 307 308 308 310 313 314 314 315 314 313 313 312 311 310 310 310 311 312 312 312 313 313 312
267 266 274 277 276 284 286 282 287 288 290 304 305 295 298 302 300 295 290 292 299 301 301 300 300 302 302 300 303 305 308 306 307 311 311 308 308 308 308 308 307 308 310 312 315 316 316 316 315 315 314 313 312 311 310 311 311 312 312 312 313 312 312
274 269 271 274 277 283 286 286 291 293 292 299 303 298 296 298 299 295 291 295 301 302 302 300 301 303 302 303 307 309 310 309 309 310 309 308 309 309 309 308 307 308 310 313 316 317 317 317 317 316 315 313 312 311 310 311 312 312 312 313 313 312 312
276 278 273 273 278 280 282 286 291 294 296 299 302 301 298 296 295 293 293 299 304 305 304 302 303 305 306 308 308 307 309 310 309 310 309 308 309 309 309 309 309 309 310 313 317 318 319 319 318 316 315 313 312 312 311 312 313 314 314 314 313 312 313
281 278 274 275 279 281 282 285 288 293 298 300 300 299 297 295 295 297 300 303 303 304 304 306 308 307 306 308 306 305 308 308 308 309 308 309 310 310 310 310 311 312 314 318 319 320 319 319 317 316 315 314 313 313 313 313 314 315 314 314 313 312 313
283 279 276 277 280 283 285 287 290 293 295 295 295 294 293 294 297 302 304 300 298 300 302 306 310 307 305 304 302 304 306 306 307 308 308 311 312 312 312 312 313 315 318 320 320 319 319 318 317 316 316 315 315 315 314 314 315 315 315 313 311 311 312
277 276 279 282 283 285 285 286 289 294 294 291 291 292 292 295 299 303 304 299 297 298 300 304 305 301 299 298 299 303 305 305 306 308 311 314 314 312 312 312 313 316 319 320 320 319 318 317 317 317 316 317 317 316 315 314 315 316 315 313 311 313 313
274 274 276 281 283 284 282 284 289 293 291 288 290 293 294 298 301 302 304 301 296 296 300 301 297 293 294 296 300 303 303 303 306 309 312 315 314 313 312 312 314 318 319 319 318 317 316 316 317 317 317 318 317 316 315 314 315 315 315 314 312 314 314
276 279 279 282 286 286 286 288 291 291 287 287 291 294 297 299 298 301 303 298 294 296 298 296 293 292 294 297 299 300 299 301 306 310 312 314 313 311 311 312 316 318 317 316 315 315 315 316 317 317 318 318 316 315 314 314 315 315 315 315 314 313 312
277 282 285 288 291 292 293 293 291 289 289 290 292 295 298 297 296 300 300 295 295 296 294 292 292 294 297 298 298 297 296 300 306 311 312 312 311 309 310 313 316 316 314 314 314 314 315 316 316 317 318 316 314 314 314 314 315 315 315 316 316 313 311
281 286 291 293 292 292 293 292 291 291 291 291 293 296 297 296 296 298 296 295 296 293 290 291 292 294 298 298 294 293 295 301 308 311 311 311 309 309 311 313 314 313 312 313 314 314 315 315 315 316 316 314 313 313 313 314 314 315 315 316 316 313 309
284 288 291 292 291 291 291 290 290 290 290 291 294 296 296 296 295 294 294 295 293 287 287 289 290 293 296 294 289 291 297 304 309 310 309 309 309 309 311 312 311 311 312 313 313 314 315 314 314 315 315 312 311 311 312 313 313 313 314 316 314 311 308
285 288 289 288 287 287 286 287 287 288 289 291 292 293 293 292 290 290 292 292 286 282 283 286 291 295 295 290 289 293 300 307 309 308 308 308 308 309 309 309 309 310 312 312 313 315 315 313 313 315 314 311 310 310 311 312 311 312 314 313 310 308 307
286 288 288 287 285 282 281 282 284 286 288 289 289 289 287 286 288 291 292 288 282 279 280 286 293 294 292 291 291 296 303 306 307 306 307 307 307 307 307 307 309 310 311 312 314 315 314 312 313 314 312 309 308 309 311 312 311 313 314 312 308 306 305
287 287 288 288 284 280 277 278 280 283 285 285 285 285 284 285 289 292 289 284 280 278 280 289 295 293 291 292 294 299 303 304 304 305 305 305 305 305 305 307 308 309 310 312 315 316 314 313 313 312 308 307 307 308 310 312 312 313 314 313 312 308 305
292 291 293 291 284 278 276 276 277 280 282 282 282 281 282 287 290 289 287 284 281 278 282 291 295 292 292 294 296 299 301 301 302 303 303 303 303 304 305 305 306 308 311 314 315 314 312 311 311 309 306 306 308 309 312 314 315 315 315 316 314 310 306
294 296 296 292 286 284 280 276 276 279 280 280 279 279 283 288 288 287 286 283 278 278 281 287 290 291 292 294 295 297 298 300 301 301 301 301 302 302 303 304 305 309 312 313 312 309 308 309 308 307 307 308 309 310 312 315 315 316 317 317 315 312 307
291 293 292 288 287 288 285 279 277 277 276 275 278 281 285 285 284 286 287 284 280 277 277 282 287 289 291 293 294 296 297 299 299 299 300 300 301 301 303 304 307 310 312 312 310 307 307 308 307 306 307 308 309 311 313 314 315 315 316 317 317 316 310
288 290 289 287 286 289 289 282 276 276 277 281 284 285 282 279 283 289 289 286 281 274 274 282 287 287 291 294 294 295 296 296 297 297 299 301 300 301 304 307 309 310 310 311 310 308 308 308 306 306 307 307 309 312 314 314 314 313 313 316 319 318 314
288 286 286 286 286 289 290 284 279 278 280 283 286 285 282 283 288 290 285 280 275 272 277 287 287 287 292 294 293 294 295 295 295 296 298 300 300 302 306 308 308 309 310 311 310 309 308 308 307 308 309 309 309 312 314 315 312 306 306 314 321 320 315
288 286 287 289 288 291 293 288 282 280 278 279 282 284 285 287 289 285 277 272 274 278 286 289 287 289 293 292 291 294 295 295 295 295 297 299 301 305 308 308 307 309 310 310 310 309 308 308 308 309 311 311 310 311 315 315 308 299 300 313 323 321 315
287 287 290 290 289 293 296 291 285 281 279 279 279 280 280 281 282 278 272 272 280 288 289 287 288 290 290 290 293 295 295 295 294 296 299 302 304 307 308 307 308 309 309 309 309 308 306 306 307 308 309 309 308 308 311 311 303 296 299 312 320 320 315
288 290 290 288 288 292 294 290 287 287 285 282 278 274 272 275 279 277 273 277 287 289 286 287 290 289 287 291 296 296 295 295 294 295 300 303 304 306 307 308 309 308 308 308 307 306 305 305 305 306 306 306 305 304 304 302 297 294 296 303 311 316 313
290 290 289 290 292 293 292 289 285 284 284 282 277 270 269 275 279 275 275 281 284 285 287 289 289 288 291 295 297 295 296 296 296 298 302 303 304 306 307 308 307 306 306 306 305 305 305 303 303 304 305 304 304 304 304 300 297 295 292 292 299 308 308
289 289 290 293 294 292 292 290 284 280 281 280 275 272 275 277 275 274 278 281 279 283 290 290 285 290 295 296 294 294 297 300 301 302 304 305 306 307 307 306 305 304 304 304 304 303 302 301 302 303 303 303 303 304 304 301 300 299 293 288 292 299 302
285 286 289 290 289 288 289 286 279 278 280 278 274 276 279 278 277 279 281 279 277 281 287 285 283 290 294 292 293 296 299 302 305 305 305 306 307 306 305 305 304 303 303 303 302 301 299 299 300 300 301 302 303 304 303 302 303 301 296 291 290 291 294
281 283 284 285 287 289 285 275 268 278 284 277 272 276 279 278 280 282 281 281 282 284 286 285 285 290 293 293 295 298 299 301 304 305 305 306 306 306 305 304 304 303 302 300 299 298 298 298 298 299 299 300 302 303 301 302 303 301 296 293 290 287 287
281 283 286 288 290 291 283 267 269 287 289 275 268 273 276 276 280 282 284 287 287 285 285 288 290 293 294 294 295 296 297 299 301 303 304 304 305 305 304 304 303 301 299 298 297 297 297 297 297 297 298 300 303 302 300 301 304 301 295 291 289 285 285
284 286 289 289 288 286 278 268 274 287 284 270 267 271 274 280 286 287 287 289 287 284 286 289 292 293 292 291 293 294 296 297 299 301 302 302 303 303 302 302 301 298 297 296 296 295 295 295 295 296 297 300 302 301 300 303 304 301 294 289 286 283 282
284 287 290 288 284 281 273 268 274 282 279 271 268 270 275 283 287 287 286 287 286 286 287 290 291 292 291 291 293 294 296 297 299 299 300 300 300 300 300 299 297 295 294 294 294 294 294 293 294 294 297 300 301 299 301 305 304 299 293 287 282 280 279
283 286 287 283 280 279 274 270 275 280 278 274 273 274 277 282 284 284 285 285 284 286 287 288 290 291 291 292 294 295 296 297 298 298 298 298 298 297 296 296 295 294 292 291 292 292 292 292 292 293 296 300 300 298 301 305 303 296 290 284 279 278 279
281 283 281 276 277 281 280 277 278 279 277 277 277 278 279 281 282 282 283 282 282 284 285 287 289 290 291 292 293 294 295 296 297 297 297 296 295 294 294 294 293 292 291 290 290 290 290 291 292 293 296 299 297 296 300 303 298 291 286 282 278 278 280